{"data":{"norad_id":45569,"epoch":"2026-05-25T01:12:35.144064Z","epoch_age_seconds":70131,"freshness":"FRESH","line1":"1 45569U 20025AQ  26145.05040676  .00376258  73264-4  63249-3 0  9998","line2":"2 45569  53.0326  11.3848 0004280 256.5302 103.5252 16.02263127338161","mean_motion":16.02263127,"eccentricity":0.000428,"inclination_deg":53.0326,"raan_deg":11.3848,"arg_perigee_deg":256.5302,"mean_anomaly_deg":103.5252,"bstar":0.00063249,"rev_number":33816,"period_min":89.872878913227,"perigee_km":265.30831652171,"apogee_km":270.9975407006,"semimajor_km":6646.2899286112,"source":"CELESTRAK","updated_at":"2026-05-25T13:38:16.423675Z"}}